tititudorancea.com
Station Historical Data
Daily Summary for January 6, 2018 Units:  Metric    English   Both
« Previous Day
Next Day »
Daily Weekly Monthly Yearly Custom
  High: Low: Average:
Temperature: -17.8 °C 16.9 °C 27.7 °C
Dew Point: -17.8 °C 2.9 °C 8.3 °C
Humidity: Humidity % 10 % 34 %
Wind Speed: 0 km/h 0 km/h 11.7 km/h
Wind Gust: 0 km/h - -
Wind:- - West
Pressure: 0 hPa 1002.6 hPa -
Precipitation: 0 mm    
Historical Graphs
 
 
Ararat weather Find more about Weather in Ararat, AU


 



 


Tabular Data for January 6, 2018
Time Temperature Dew Point Pressure Wind Wind Speed Wind Gust Humidity Rainfall Rate (Hourly)
-17.8 °C -17.8 °C 0 hPa Calm     Humidity % 0 mm
00:01 20.2 °C 9.4 °C 1009.7 hPa Calm     50 % 0 mm
00:06 19.9 °C 9.2 °C 1009.7 hPa Calm     50 % 0 mm
00:09 19.8 °C 9.1 °C 1009.7 hPa Calm     50 % 0 mm
00:11 19.8 °C 9.4 °C 1009.7 hPa Calm     51 % 0 mm
00:16 19.8 °C 9.4 °C 1009.7 hPa Calm     51 % 0 mm
00:17 19.8 °C 9.4 °C 1009.7 hPa Calm     51 % 0 mm
00:22 19.7 °C 9.6 °C 1009.7 hPa Calm     52 % 0 mm
00:27 19.6 °C 9.4 °C 1009.7 hPa Calm     52 % 0 mm
00:32 19.4 °C 9.8 °C 1009.4 hPa Calm     54 % 0 mm
00:34 19.3 °C 9.5 °C 1009.4 hPa Calm     53 % 0 mm
00:39 19.3 °C 9.4 °C 1009.4 hPa Calm     53 % 0 mm
00:42 19.2 °C 9.1 °C 1009.4 hPa Calm     52 % 0 mm
00:47 19.2 °C 9.1 °C 1009.4 hPa Calm     52 % 0 mm
00:50 19.2 °C 9.3 °C 1009.4 hPa Calm     53 % 0 mm
00:55 19.2 °C 9.3 °C 1009.4 hPa Calm     53 % 0 mm
01:00 19.2 °C 9.6 °C 1009.4 hPa Calm     54 % 0 mm
01:02 19.1 °C 9.6 °C 1009.4 hPa Calm     54 % 0 mm
01:07 18.9 °C 9.7 °C 1009.4 hPa Calm     55 % 0 mm
01:12 18.9 °C 9.7 °C 1009.4 hPa Calm     55 % 0 mm
01:17 18.9 °C 9.7 °C 1009.4 hPa Calm     55 % 0 mm
01:22 18.9 °C 9.7 °C 1009 hPa Calm     55 % 0 mm
01:27 18.9 °C 9.4 °C 1009 hPa Calm     54 % 0 mm
01:31 18.8 °C 9.9 °C 1009 hPa Calm     56 % 0 mm
01:36 18.6 °C 9.4 °C 1009 hPa Calm     55 % 0 mm
01:40 18.6 °C 9.6 °C 1009 hPa Calm     56 % 0 mm
01:45 18.6 °C 9.6 °C 1009 hPa Calm     56 % 0 mm
01:50 18.6 °C 9.6 °C 1009 hPa Calm     56 % 0 mm
01:52 18.6 °C 9.6 °C 1009 hPa Calm     56 % 0 mm
01:53 18.6 °C 9.6 °C 1009 hPa Calm     56 % 0 mm
01:58 18.6 °C 9.4 °C 1009 hPa Calm     55 % 0 mm
02:00 18.7 °C 9.4 °C 1008.7 hPa Calm     55 % 0 mm
02:05 18.6 °C 9.7 °C 1008.7 hPa Calm     56 % 0 mm
02:10 18.5 °C 9.6 °C 1008.7 hPa Calm     56 % 0 mm
02:12 18.4 °C 9.5 °C 1008.7 hPa Calm     56 % 0 mm
02:17 18.3 °C 9.4 °C 1008.7 hPa Calm     56 % 0 mm
02:18 18.3 °C 9.4 °C 1008.7 hPa Calm     56 % 0 mm
02:23 18.4 °C 9.4 °C 1008.7 hPa Calm     56 % 0 mm
02:25 18.4 °C 9.4 °C 1008.7 hPa Calm     56 % 0 mm
02:26 18.4 °C 9.4 °C 1008.7 hPa Calm     56 % 0 mm
02:30 18.5 °C 9.6 °C 1008.7 hPa Calm     56 % 0 mm
02:35 18.6 °C 9.4 °C 1008.4 hPa Calm     55 % 0 mm
02:40 18.6 °C 9.6 °C 1008.4 hPa WNW 0.2 km/h 1.9 km/h 56 % 0 mm
02:43 18.4 °C 9.5 °C 1008.4 hPa Calm     56 % 0 mm
02:47 18.3 °C 9.4 °C 1008.4 hPa Calm     56 % 0 mm
02:52 18.2 °C 9.6 °C 1008.4 hPa WNW 0.5 km/h 1.6 km/h 57 % 0 mm
02:57 18.2 °C 9.2 °C 1008 hPa WNW 4 km/h 5.6 km/h 56 % 0 mm
02:58 18.2 °C 9.2 °C 1008 hPa WNW 4.2 km/h 5.6 km/h 56 % 0 mm
03:03 18.3 °C 9.1 °C 1008 hPa WNW 4.2 km/h 5.6 km/h 55 % 0 mm
03:04 18.3 °C 8.8 °C 1008 hPa WNW 4.3 km/h 5.6 km/h 54 % 0 mm
03:05 18.4 °C 8.9 °C 1008 hPa WNW 4.2 km/h 5.6 km/h 54 % 0 mm
03:07 18.5 °C 8.7 °C 1008 hPa WNW 3.7 km/h 5.6 km/h 53 % 0 mm
03:12 18.8 °C 8.1 °C 1008 hPa WNW 2.6 km/h 5.6 km/h 50 % 0 mm
03:13 18.8 °C 8.2 °C 1008 hPa WNW 0.3 km/h 3.7 km/h 50 % 0 mm
03:14 18.9 °C 8.2 °C 1008 hPa WNW 0.2 km/h 3.7 km/h 50 % 0 mm
03:19 19.2 °C 7.9 °C 1008 hPa WNW 1.6 km/h 3.7 km/h 48 % 0 mm
03:20 19.3 °C 8 °C 1008 hPa WNW 1.1 km/h 5.6 km/h 48 % 0 mm
03:25 19.6 °C 7.9 °C 1008 hPa WNW 3.4 km/h 3.7 km/h 47 % 0 mm
03:29 19.7 °C 8.1 °C 1008 hPa WNW 3.4 km/h 5.6 km/h 47 % 0 mm
03:30 19.7 °C 8.1 °C 1007.7 hPa WNW 3.2 km/h 5.6 km/h 47 % 0 mm
03:35 19.8 °C 8.1 °C 1007.7 hPa WNW 2.7 km/h 4.8 km/h 47 % 0 mm
03:40 19.8 °C 8.1 °C 1007.7 hPa WNW 4.3 km/h 5.6 km/h 47 % 0 mm
03:45 19.8 °C 8.1 °C 1007.7 hPa WNW 5.1 km/h 5.6 km/h 47 % 0 mm
03:46 19.8 °C 7.8 °C 1007.7 hPa WNW 6 km/h 6.4 km/h 46 % 0 mm
03:51 20 °C 7.7 °C 1007.7 hPa WNW 6.3 km/h 8 km/h 45 % 0 mm
03:52 20.1 °C 7.7 °C 1007.7 hPa WNW 6.4 km/h 7.4 km/h 45 % 0 mm
03:57 20.3 °C 7.3 °C 1007.7 hPa WNW 4.2 km/h 6.4 km/h 43 % 0 mm
04:01 20.4 °C 7.8 °C 1007.7 hPa WNW 3.2 km/h 5.6 km/h 44 % 0 mm
04:06 20.3 °C 7.7 °C 1007.7 hPa North 3.5 km/h 5.6 km/h 44 % 0 mm
04:07 20.3 °C 7.7 °C 1007.7 hPa WNW 3.7 km/h 5.6 km/h 44 % 0 mm
04:12 20.3 °C 7.6 °C 1007.7 hPa WNW 1.9 km/h 3.7 km/h 44 % 0 mm
04:15 20.3 °C 7.7 °C 1007.7 hPa WNW 2.7 km/h 3.7 km/h 44 % 0 mm
04:17 20.3 °C 7.7 °C 1007.3 hPa WNW 3.1 km/h 5.6 km/h 44 % 0 mm
04:22 20.5 °C 7.8 °C 1007.3 hPa North 2.7 km/h 3.7 km/h 44 % 0 mm
04:23 20.5 °C 7.5 °C 1007.3 hPa WNW 1.9 km/h 5.6 km/h 43 % 0 mm
04:25 20.6 °C 7.6 °C 1007.3 hPa WNW 2.7 km/h 5.6 km/h 43 % 0 mm
04:30 20.7 °C 7.6 °C 1007.3 hPa WNW 2.1 km/h 5.6 km/h 43 % 0 mm
04:31 20.7 °C 7.6 °C 1007.3 hPa WNW 1.3 km/h 3.7 km/h 43 % 0 mm
04:36 20.8 °C 7.7 °C 1007.3 hPa WNW 1.9 km/h 3.7 km/h 43 % 0 mm
04:40 20.9 °C 7.8 °C 1007.3 hPa WNW 2.7 km/h 3.7 km/h 43 % 0 mm
04:43 21 °C 7.6 °C 1007.3 hPa WNW 2.7 km/h 3.7 km/h 42 % 0 mm
04:47 21.2 °C 7.4 °C 1007.3 hPa North 2.9 km/h 5.6 km/h 41 % 0 mm
04:52 21.4 °C 8 °C 1007.3 hPa North 3.2 km/h 5.6 km/h 42 % 0 mm
04:53 21.4 °C 7.6 °C 1007.3 hPa WNW 1.6 km/h 3.7 km/h 41 % 0 mm
04:55 21.4 °C 7.6 °C 1007.3 hPa North 2.1 km/h 5.6 km/h 41 % 0 mm
04:59 21.5 °C 7.7 °C 1007.3 hPa WNW 1.4 km/h 5.6 km/h 41 % 0 mm
05:00 21.5 °C 7.7 °C 1007.3 hPa North 0.5 km/h 1.9 km/h 41 % 0 mm
05:05 21.5 °C 7.7 °C 1007.3 hPa WNW 2.3 km/h 4.8 km/h 41 % 0 mm
05:10 21.6 °C 7.4 °C 1007.3 hPa WNW 2.4 km/h 3.7 km/h 40 % 0 mm
05:13 21.6 °C 7.4 °C 1007.3 hPa WNW 1.8 km/h 3.7 km/h 40 % 0 mm
05:18 21.7 °C 7.5 °C 1007.3 hPa WNW 2.3 km/h 3.7 km/h 40 % 0 mm
05:20 21.7 °C 7.5 °C 1007.3 hPa WNW 1.4 km/h 3.7 km/h 40 % 0 mm
05:21 21.7 °C 7.5 °C 1007.3 hPa North 1.8 km/h 3.7 km/h 40 % 0 mm
05:26 21.7 °C 7.5 °C 1007.3 hPa WNW 1.3 km/h 3.7 km/h 40 % 0 mm
05:31 21.7 °C 7.2 °C 1007.3 hPa WNW 1.1 km/h 3.7 km/h 39 % 0 mm
05:35 21.8 °C 7.3 °C 1007.3 hPa WNW 0.6 km/h 1.9 km/h 39 % 0 mm
05:38 21.9 °C 7.3 °C 1007.3 hPa WNW 1.4 km/h 3.7 km/h 39 % 0 mm
05:42 21.9 °C 6.9 °C 1007.3 hPa WNW 1 km/h 3.7 km/h 38 % 0 mm
05:47 22 °C 7 °C 1007.3 hPa WNW 3.2 km/h 5.6 km/h 38 % 0 mm
05:48 22 °C 7 °C 1007.7 hPa WNW 2.6 km/h 4.8 km/h 38 % 0 mm
05:53 22.1 °C 7.1 °C 1007.7 hPa WNW 4.5 km/h 5.6 km/h 38 % 0 mm
05:58 22.3 °C 6.9 °C 1007.7 hPa WNW 4 km/h 5.6 km/h 37 % 0 mm
06:03 22.6 °C 7.2 °C 1007.7 hPa WNW 3.5 km/h 7.4 km/h 37 % 0 mm
06:05 22.7 °C 6.9 °C 1007.7 hPa WNW 2.6 km/h 5.6 km/h 36 % 0 mm
06:10 22.9 °C 7 °C 1007.7 hPa WNW 4.3 km/h 5.6 km/h 36 % 0 mm
06:11 22.9 °C 7.1 °C 1008 hPa WNW 2.6 km/h 5.6 km/h 36 % 0 mm
06:16 23.2 °C 6.8 °C 1007.7 hPa WNW 4 km/h 5.6 km/h 35 % 0 mm
06:17 23.2 °C 6.8 °C 1008 hPa North 4.5 km/h 7.4 km/h 35 % 0 mm
06:18 23.2 °C 6.9 °C 1007.7 hPa North 4 km/h 6.4 km/h 35 % 0 mm
06:22 23.5 °C 6.7 °C 1008 hPa WNW 3.5 km/h 5.6 km/h 34 % 0 mm
06:27 23.7 °C 7.3 °C 1008 hPa WNW 3.9 km/h 5.6 km/h 35 % 0 mm
06:28 23.6 °C 6.8 °C 1008 hPa North 4.2 km/h 5.6 km/h 34 % 0 mm
06:31 23.6 °C 6.8 °C 1007.7 hPa WNW 4.2 km/h 7.4 km/h 34 % 0 mm
06:33 23.6 °C 6.8 °C 1008 hPa WNW 3.1 km/h 5.6 km/h 34 % 0 mm
06:36 23.5 °C 7.2 °C 1007.7 hPa WNW 2.9 km/h 5.6 km/h 35 % 0 mm
06:38 23.5 °C 7.2 °C 1007.7 hPa WNW 2.9 km/h 5.6 km/h 35 % 0 mm
06:43 23.5 °C 7.2 °C 1007.7 hPa North 2.6 km/h 5.6 km/h 35 % 0 mm
06:44 23.5 °C 7.2 °C 1007.7 hPa WNW 3.7 km/h 5.6 km/h 35 % 0 mm
06:45 23.4 °C 7.1 °C 1007.7 hPa WNW 3.2 km/h 5.6 km/h 35 % 0 mm
06:50 23.4 °C 7.1 °C 1007.7 hPa North 4.3 km/h 5.6 km/h 35 % 0 mm
06:51 23.4 °C 7.1 °C 1007.7 hPa WNW 3.7 km/h 9.3 km/h 35 % 0 mm
06:52 23.4 °C 7.1 °C 1007.7 hPa WNW 2.9 km/h 9.3 km/h 35 % 0 mm
06:57 23.5 °C 7.2 °C 1007.7 hPa WNW 1.3 km/h 3.7 km/h 35 % 0 mm
06:58 23.6 °C 7.2 °C 1007.7 hPa WNW 0.8 km/h 3.7 km/h 35 % 0 mm
07:01 23.6 °C 7.2 °C 1007.7 hPa WNW 2.6 km/h 5.6 km/h 35 % 0 mm
07:06 23.7 °C 7.3 °C 1007.7 hPa North 2.3 km/h 3.7 km/h 35 % 0 mm
07:09 23.7 °C 7.3 °C 1007.7 hPa WNW 2.6 km/h 5.6 km/h 35 % 0 mm
07:12 23.8 °C 7.4 °C 1007.7 hPa WNW 1.8 km/h 5.6 km/h 35 % 0 mm
07:17 23.9 °C 7.9 °C 1008 hPa WNW 3.1 km/h 6.4 km/h 36 % 0 mm
07:22 24.2 °C 7.7 °C 1007.7 hPa NW 4.8 km/h 6.4 km/h 35 % 0 mm
07:27 24.4 °C 7.9 °C 1008 hPa NW 5.1 km/h 9.3 km/h 35 % 0 mm
07:32 24.7 °C 8.2 °C 1008 hPa NW 6.4 km/h 7.4 km/h 35 % 0 mm
07:33 24.7 °C 7.8 °C 1008 hPa NW 6.3 km/h 9.3 km/h 34 % 0 mm
07:38 25 °C 8.4 °C 1008 hPa NW 5.3 km/h 7.4 km/h 35 % 0 mm
07:40 25.1 °C 8.1 °C 1008 hPa NW 4.3 km/h 5.6 km/h 34 % 0 mm
07:45 25.3 °C 8.3 °C 1008 hPa NW 2.9 km/h 5.6 km/h 34 % 0 mm
07:50 25.7 °C 8.6 °C 1008 hPa NW 4.8 km/h 9.3 km/h 34 % 0 mm
07:54 25.9 °C 8.4 °C 1008 hPa NNW 7.1 km/h 13 km/h 33 % 0 mm
07:58 26.1 °C 8.1 °C 1008 hPa North 7.2 km/h 11.3 km/h 32 % 0 mm
07:59 26.1 °C 8.6 °C 1008 hPa North 7.6 km/h 16.1 km/h 33 % 0 mm
08:03 26.3 °C 8.3 °C 1008 hPa North 6.9 km/h 11.1 km/h 32 % 0 mm
08:08 26.4 °C 8.4 °C 1008 hPa North 8.2 km/h 11.3 km/h 32 % 0 mm
08:14 26.6 °C 8.6 °C 1008 hPa North 8.2 km/h 13 km/h 32 % 0 mm
08:18 26.8 °C 8.7 °C 1008 hPa NNW 6.8 km/h 11.1 km/h 32 % 0 mm
08:20 26.9 °C 8.8 °C 1008 hPa NNW 6.3 km/h 13 km/h 32 % 0 mm
08:25 27.2 °C 8.6 °C 1008 hPa NNW 11.1 km/h 14.8 km/h 31 % 0 mm
08:26 27.2 °C 8.6 °C 1008 hPa NNW 10.8 km/h 16.7 km/h 31 % 0 mm
08:31 27.4 °C 8.8 °C 1008 hPa North 9.7 km/h 14.8 km/h 31 % 0 mm
08:32 27.5 °C 8.8 °C 1008 hPa North 12.7 km/h 18.5 km/h 31 % 0 mm
08:37 27.8 °C 8.6 °C 1008 hPa North 11.1 km/h 18.5 km/h 30 % 0 mm
08:42 28.1 °C 8.9 °C 1007.7 hPa North 13.5 km/h 16.7 km/h 30 % 0 mm
08:43 28.2 °C 9 °C 1007.7 hPa North 20.4 km/h 20.4 km/h 30 % 0 mm
08:48 28.7 °C 8.9 °C 1008 hPa North 13.4 km/h 20.4 km/h 29 % 0 mm
08:50 28.8 °C 8.4 °C 1008 hPa North 17.9 km/h 29.6 km/h 28 % 0 mm
08:55 29.1 °C 8.7 °C 1008 hPa NNW 12.9 km/h 18.5 km/h 28 % 0 mm
08:59 29.3 °C 8.9 °C 1007.7 hPa North 17.7 km/h 33.3 km/h 28 % 0 mm
09:04 29.6 °C 9.2 °C 1007.7 hPa North 10 km/h 13 km/h 28 % 0 mm
09:09 29.8 °C 9.3 °C 1007.7 hPa NW 12.6 km/h 16.7 km/h 28 % 0 mm
09:10 29.9 °C 8.9 °C 1007.7 hPa North 13.2 km/h 20.4 km/h 27 % 0 mm
09:15 30.1 °C 9 °C 1007.7 hPa North 10.8 km/h 18.5 km/h 27 % 0 mm
09:16 30.1 °C 9.6 °C 1007.7 hPa North 12.1 km/h 18.5 km/h 28 % 0 mm
09:21 30.3 °C 9.2 °C 1007.3 hPa NW 7.7 km/h 14.8 km/h 27 % 0 mm
09:26 30.8 °C 9.1 °C 1007.3 hPa NNW 18 km/h 27.8 km/h 26 % 0 mm
09:29 30.9 °C 9.2 °C 1007.3 hPa NNE 19.3 km/h 37 km/h 26 % 0 mm
09:30 30.9 °C 9.2 °C 1007.3 hPa NNW 11.6 km/h 19.3 km/h 26 % 0 mm
09:34 31.2 °C 8.8 °C 1007.3 hPa North 16.1 km/h 24.1 km/h 25 % 0 mm
09:39 31.5 °C 8.5 °C 1007.3 hPa North 17.7 km/h 31.5 km/h 24 % 0 mm
09:40 31.5 °C 8.5 °C 1007.3 hPa NNE 15.9 km/h 25.9 km/h 24 % 0 mm
09:45 31.8 °C 9.3 °C 1007.3 hPa North 16.6 km/h 29.6 km/h 25 % 0 mm
09:46 31.9 °C 8.8 °C 1007 hPa NNW 23.8 km/h 29.6 km/h 24 % 0 mm
09:50 32.1 °C 8.9 °C 1007.3 hPa NNW 23 km/h 37 km/h 24 % 0 mm
09:53 32.2 °C 8.4 °C 1007.3 hPa North 24 km/h 35.2 km/h 23 % 0 mm
09:58 32.5 °C 8.7 °C 1007 hPa North 19.3 km/h 31.5 km/h 23 % 0 mm
10:00 32.6 °C 8.7 °C 1007 hPa NNW 21.2 km/h 27.4 km/h 23 % 0 mm
10:04 32.6 °C 8.8 °C 1007 hPa North 20.8 km/h 29.6 km/h 23 % 0 mm
10:07 32.8 °C 8.9 °C 1007 hPa NNE 23.3 km/h 31.5 km/h 23 % 0 mm
10:09 32.9 °C 9 °C 1007 hPa North 17.4 km/h 29 km/h 23 % 0 mm
10:15 33 °C 9.1 °C 1007 hPa North 17.5 km/h 29.6 km/h 23 % 0 mm
10:16 33.1 °C 9.2 °C 1007 hPa NNW 19.2 km/h 33.3 km/h 23 % 0 mm
10:17 33.2 °C 9.2 °C 1007 hPa North 18.5 km/h 29.6 km/h 23 % 0 mm
10:22 33.4 °C 9.5 °C 1007 hPa NW 21.2 km/h 31.5 km/h 23 % 0 mm
10:24 33.5 °C 8.9 °C 1007 hPa North 26.2 km/h 37 km/h 22 % 0 mm
10:29 33.6 °C 8.9 °C 1006.7 hPa North 17.7 km/h 31.5 km/h 22 % 0 mm
10:31 33.7 °C 9 °C 1007 hPa North 20.4 km/h 31.5 km/h 22 % 0 mm
10:33 33.7 °C 9.1 °C 1007 hPa North 16.9 km/h 25.9 km/h 22 % 0 mm
10:37 34 °C 9.3 °C 1006.7 hPa NW 15.9 km/h 22.2 km/h 22 % 0 mm
10:42 34 °C 8.6 °C 1006.7 hPa NW 25.1 km/h 31.5 km/h 21 % 0 mm
10:45 34.1 °C 8.6 °C 1006.7 hPa NNW 19.8 km/h 31.5 km/h 21 % 0 mm
10:50 34.4 °C 8.9 °C 1006.3 hPa NW 17.1 km/h 33.3 km/h 21 % 0 mm
10:55 34.4 °C 8.2 °C 1006.3 hPa NNW 24.3 km/h 38.9 km/h 20 % 0 mm
11:00 34.7 °C 8.4 °C 1006.3 hPa NW 15.4 km/h 24.1 km/h 20 % 0 mm
11:01 34.7 °C 8.4 °C 1006.3 hPa NNW 18.2 km/h 29 km/h 20 % 0 mm
11:06 34.9 °C 8.6 °C 1006.7 hPa North 33.2 km/h 50 km/h 20 % 0 mm
11:08 34.8 °C 8.6 °C 1006.3 hPa NNW 26.4 km/h 35.2 km/h 20 % 0 mm
11:13 34.9 °C 7.9 °C 1006.3 hPa North 27.4 km/h 37 km/h 19 % 0 mm
11:14 34.9 °C 7.9 °C 1006.3 hPa North 26.4 km/h 42.6 km/h 19 % 0 mm
11:19 35 °C 8.7 °C 1006.3 hPa NNW 25.1 km/h 42.6 km/h 20 % 0 mm
11:21 35.1 °C 8 °C 1006.3 hPa North 23.7 km/h 37 km/h 19 % 0 mm
11:24 35.2 °C 8.1 °C 1006.3 hPa North 25.9 km/h 41.8 km/h 19 % 0 mm
11:28 35.3 °C 8.2 °C 1006.3 hPa North 18.5 km/h 29.6 km/h 19 % 0 mm
11:29 35.4 °C 8.2 °C 1006.3 hPa NNW 18.3 km/h 25.9 km/h 19 % 0 mm
11:34 35.8 °C 8.6 °C 1006.3 hPa NNW 20.9 km/h 33.8 km/h 19 % 0 mm
11:39 35.9 °C 7.9 °C 1006 hPa NNW 17.1 km/h 31.5 km/h 18 % 0 mm
11:40 35.9 °C 7.9 °C 1006 hPa NNE 24.1 km/h 25.9 km/h 18 % 0 mm
11:43 36.1 °C 8 °C 1006.3 hPa North 24 km/h 37 km/h 18 % 0 mm
11:46 36 °C 7.9 °C 1006.3 hPa NW 19.5 km/h 29.6 km/h 18 % 0 mm
11:49 36.1 °C 8.1 °C 1006.3 hPa NE 22.2 km/h 32.2 km/h 18 % 0 mm
11:54 36.2 °C 8.1 °C 1006 hPa North 18 km/h 25.9 km/h 18 % 0 mm
11:59 36.2 °C 8.1 °C 1006 hPa NNW 19.8 km/h 33.8 km/h 18 % 0 mm
12:04 36.3 °C 7.4 °C 1006 hPa North 14.8 km/h 24.1 km/h 17 % 0 mm
12:06 36.5 °C 8.3 °C 1006 hPa North 18.2 km/h 24.1 km/h 18 % 0 mm
12:08 36.7 °C 7.7 °C 1005.6 hPa North 28.5 km/h 38.9 km/h 17 % 0 mm
12:11 36.6 °C 7.6 °C 1006 hPa North 19.8 km/h 31.5 km/h 17 % 0 mm
12:13 36.6 °C 7.6 °C 1005.6 hPa NNW 16.9 km/h 25.9 km/h 17 % 0 mm
12:18 36.8 °C 7.7 °C 1005.6 hPa North 26.7 km/h 44.4 km/h 17 % 0 mm
12:19 36.8 °C 7.8 °C 1005.6 hPa North 22.9 km/h 44.4 km/h 17 % 0 mm
12:21 36.8 °C 7.8 °C 1005.6 hPa NNE 22.7 km/h 33.3 km/h 17 % 0 mm
12:26 36.9 °C 7.9 °C 1005.6 hPa NNW 23.5 km/h 42.6 km/h 17 % 0 mm
12:31 36.9 °C 7 °C 1005.6 hPa North 24.6 km/h 37 km/h 16 % 0 mm
12:34 36.9 °C 6.9 °C 1005.6 hPa North 20 km/h 38.9 km/h 16 % 0 mm
12:36 36.9 °C 7 °C 1005.3 hPa NW 12.7 km/h 24.1 km/h 16 % 0 mm
12:41 37.2 °C 7.2 °C 1005.3 hPa NW 20.1 km/h 27.8 km/h 16 % 0 mm
12:43 37.3 °C 6.3 °C 1005.3 hPa NW 26.4 km/h 33.3 km/h 15 % 0 mm
12:47 37 °C 7 °C 1005.3 hPa North 21.4 km/h 35.4 km/h 16 % 0 mm
12:50 37.2 °C 7.2 °C 1005.3 hPa NNW 27 km/h 40.7 km/h 16 % 0 mm
12:54 37.6 °C 7.5 °C 1005 hPa NW 20.1 km/h 27.8 km/h 16 % 0 mm
12:59 37.8 °C 6.7 °C 1005 hPa NW 24.9 km/h 35.4 km/h 15 % 0 mm
13:03 37.6 °C 6.5 °C 1005 hPa NW 19.8 km/h 27.8 km/h 15 % 0 mm
13:11 37.8 °C 6.7 °C 1004.6 hPa NW 23 km/h 33.3 km/h 15 % 0 mm
13:13 37.8 °C 7.7 °C 1004.6 hPa NW 13.8 km/h 22.2 km/h 16 % 0 mm
13:17 37.9 °C 6.8 °C 1004.6 hPa North 22.2 km/h 31.5 km/h 15 % 0 mm
13:18 37.9 °C 6.8 °C 1004.6 hPa NNW 18.5 km/h 31.5 km/h 15 % 0 mm
13:23 38 °C 6.9 °C 1004.6 hPa NW 27.2 km/h 38.9 km/h 15 % 0 mm
13:27 37.8 °C 6.7 °C 1004.6 hPa NW 16.1 km/h 31.5 km/h 15 % 0 mm
13:28 37.8 °C 6.7 °C 1004.6 hPa NW 22 km/h 31.5 km/h 15 % 0 mm
13:33 38.3 °C 7.1 °C 1004.6 hPa WNW 20.6 km/h 38.9 km/h 15 % 0 mm
13:37 38.7 °C 6.4 °C 1004.6 hPa WNW 19.3 km/h 29.6 km/h 14 % 0 mm
13:39 38.8 °C 6.5 °C 1004.3 hPa North 14.8 km/h 35.2 km/h 14 % 0 mm
13:44 38.6 °C 5.2 °C 1004.3 hPa West 35.4 km/h 48.1 km/h 13 % 0 mm
13:47 38.3 °C 6.1 °C 1004.3 hPa NNW 24.8 km/h 37 km/h 14 % 0 mm
13:52 38.2 °C 6 °C 1004.3 hPa NW 29.5 km/h 42.6 km/h 14 % 0 mm
13:57 38.2 °C 7.1 °C 1004.3 hPa NW 18.8 km/h 25.9 km/h 15 % 0 mm
14:10 38.8 °C 6.5 °C 1003.6 hPa North 37 km/h 37 km/h 14 % 0 mm
14:16 38.8 °C 6.5 °C 1003.6 hPa North 19.8 km/h 38.9 km/h 14 % 0 mm
14:21 38.8 °C 6.5 °C 1003.6 hPa WNW 23 km/h 35.2 km/h 14 % 0 mm
14:26 38.8 °C 6.5 °C 1003.6 hPa NW 17.9 km/h 27.8 km/h 14 % 0 mm
14:30 38.9 °C 5.5 °C 1003.6 hPa West 26.6 km/h 35.2 km/h 13 % 0 mm
14:33 38.9 °C 5.5 °C 1003.6 hPa NW 19 km/h 37 km/h 13 % 0 mm
14:36 38.9 °C 5.5 °C 1003.6 hPa North 19.6 km/h 27.8 km/h 13 % 0 mm
14:42 39.1 °C 5.7 °C 1003.6 hPa WNW 19.8 km/h 33.3 km/h 13 % 0 mm
14:44 39.3 °C 5.8 °C 1003.6 hPa North 22.7 km/h 31.5 km/h 13 % 0 mm
14:49 39.5 °C 4.8 °C 1003.3 hPa North 16.7 km/h 31.5 km/h 12 % 0 mm
14:54 39.6 °C 4.9 °C 1003.6 hPa NW 21.9 km/h 31.5 km/h 12 % 0 mm
14:58 39.5 °C 4.8 °C 1003.3 hPa NW 24.6 km/h 35.2 km/h 12 % 0 mm
15:03 39.8 °C 5.1 °C 1003.6 hPa North 29.9 km/h 42.6 km/h 12 % 0 mm
15:08 39.4 °C 5.9 °C 1003.3 hPa North 12.4 km/h 31.5 km/h 13 % 0 mm
15:13 39.9 °C 5.1 °C 1003.3 hPa NW 20.4 km/h 37 km/h 12 % 0 mm
15:14 39.8 °C 5.1 °C 1002.9 hPa WNW 30.4 km/h 40.7 km/h 12 % 0 mm
15:21 39.9 °C 5.2 °C 1002.9 hPa WNW 26.1 km/h 35.2 km/h 12 % 0 mm
15:26 39.8 °C 5.1 °C 1002.9 hPa NW 18.2 km/h 27.8 km/h 12 % 0 mm
15:31 40.3 °C 5.4 °C 1002.9 hPa WNW 20.6 km/h 31.5 km/h 12 % 0 mm
15:35 40.1 °C 5.2 °C 1002.9 hPa NW 31.2 km/h 37 km/h 12 % 0 mm
15:40 39.8 °C 5.1 °C 1002.9 hPa WNW 23.7 km/h 33.8 km/h 12 % 0 mm
15:41 39.7 °C 3.7 °C 1002.9 hPa WNW 27.2 km/h 33.3 km/h 11 % 0 mm
15:46 39.7 °C 4.9 °C 1002.9 hPa NW 17.2 km/h 24.1 km/h 12 % 0 mm
15:51 39.8 °C 5.1 °C 1002.9 hPa NW 21.6 km/h 31.5 km/h 12 % 0 mm
15:54 39.9 °C 5.2 °C 1002.9 hPa NNW 13 km/h 20.4 km/h 12 % 0 mm
16:00 40 °C 5.2 °C 1002.9 hPa North 22.9 km/h 25.9 km/h 12 % 0 mm
16:05 39.8 °C 3.8 °C 1002.9 hPa North 25.7 km/h 31.5 km/h 11 % 0 mm
16:10 40.1 °C 4.1 °C 1002.9 hPa WNW 22.7 km/h 35.2 km/h 11 % 0 mm
16:15 40.2 °C 4.1 °C 1002.9 hPa West 20.6 km/h 31.5 km/h 11 % 0 mm
16:19 39.9 °C 3.9 °C 1002.9 hPa NW 28.5 km/h 42.6 km/h 11 % 0 mm
16:24 40.1 °C 5.3 °C 1002.9 hPa WNW 14.8 km/h 22.2 km/h 12 % 0 mm
16:30 40.4 °C 4.3 °C 1002.9 hPa WNW 14.2 km/h 24.1 km/h 11 % 0 mm
16:35 40.6 °C 4.4 °C 1002.9 hPa WNW 27.4 km/h 37 km/h 11 % 0 mm
16:39 40.3 °C 4.2 °C 1002.9 hPa West 28.3 km/h 37 km/h 11 % 0 mm
16:44 40.2 °C 4.1 °C 1002.9 hPa North 23 km/h 33.3 km/h 11 % 0 mm
16:49 40.4 °C 4.3 °C 1002.9 hPa North 19.3 km/h 31.5 km/h 11 % 0 mm
16:50 40.4 °C 4.3 °C 1002.6 hPa NNW 13.2 km/h 20.4 km/h 11 % 0 mm
16:55 40.4 °C 4.3 °C 1002.6 hPa WNW 13.4 km/h 31.5 km/h 11 % 0 mm
17:00 40.7 °C 3.1 °C 1002.6 hPa West 22.7 km/h 31.5 km/h 10 % 0 mm
17:01 40.6 °C 3.1 °C 1002.6 hPa West 22.4 km/h 29.6 km/h 10 % 0 mm
17:07 40.5 °C 3 °C 1002.6 hPa NW 21.7 km/h 31.5 km/h 10 % 0 mm
17:12 40.6 °C 3 °C 1002.6 hPa WNW 19.2 km/h 27.8 km/h 10 % 0 mm
17:13 40.4 °C 2.9 °C 1002.6 hPa WNW 18.3 km/h 24.1 km/h 10 % 0 mm
17:17 40.4 °C 2.9 °C 1002.9 hPa WSW 21.1 km/h 29.6 km/h 10 % 0 mm
17:22 39.7 °C 9.2 °C 1003.6 hPa South 24.1 km/h 38.9 km/h 16 % 0 mm
17:28 35.8 °C 13.3 °C 1003.6 hPa South 12.2 km/h 37 km/h 26 % 0 mm
17:33 35 °C 13.8 °C 1003.6 hPa SSW 27 km/h 38.9 km/h 28 % 0 mm
17:38 34.1 °C 13.6 °C 1003.9 hPa South 32 km/h 48.1 km/h 29 % 0 mm
17:43 33.2 °C 13.8 °C 1004.3 hPa SSW 28.5 km/h 38.9 km/h 31 % 0 mm
17:48 32.6 °C 13.3 °C 1004.3 hPa South 25.9 km/h 35.2 km/h 31 % 0 mm
17:53 32.3 °C 13 °C 1004.3 hPa SSW 33.2 km/h 51.8 km/h 31 % 0 mm
17:54 32.2 °C 12.9 °C 1004.3 hPa South 25.9 km/h 42.6 km/h 31 % 0 mm
17:59 32.1 °C 12.8 °C 1004.6 hPa South 33.6 km/h 46.3 km/h 31 % 0 mm
18:02 31.6 °C 12.4 °C 1004.6 hPa SSE 29.1 km/h 44.4 km/h 31 % 0 mm
18:07 31.1 °C 11.9 °C 1005 hPa SSW 27.8 km/h 31.5 km/h 31 % 0 mm
18:10 30.8 °C 11.7 °C 1005 hPa SSW 21.6 km/h 40.7 km/h 31 % 0 mm
18:15 30.3 °C 11.8 °C 1005.3 hPa SSW 31.2 km/h 44.4 km/h 32 % 0 mm
18:20 30.1 °C 11.6 °C 1005.6 hPa South 14.5 km/h 27.8 km/h 32 % 0 mm
18:25 30.1 °C 11.6 °C 1005.6 hPa South 10 km/h 16.7 km/h 32 % 0 mm
18:30 30.5 °C 11.4 °C 1005.6 hPa SSW 8.2 km/h 13 km/h 31 % 0 mm
18:35 30.5 °C 11.9 °C 1005.6 hPa South 10.5 km/h 17.7 km/h 32 % 0 mm
18:38 30.5 °C 11.4 °C 1005.6 hPa South 13.4 km/h 25.9 km/h 31 % 0 mm
18:48 30.4 °C 11.4 °C 1005.6 hPa South 15.9 km/h 24.1 km/h 31 % 0 mm
18:52 30.3 °C 11.3 °C 1005.6 hPa South 16.9 km/h 27.8 km/h 31 % 0 mm
18:57 30.2 °C 11.2 °C 1005.6 hPa South 11.9 km/h 16.7 km/h 31 % 0 mm
19:02 30.2 °C 11.2 °C 1005.6 hPa South 7.9 km/h 9.3 km/h 31 % 0 mm
19:07 30.3 °C 10.8 °C 1005.6 hPa South 13.2 km/h 18.5 km/h 30 % 0 mm
19:11 30.3 °C 10.8 °C 1005.6 hPa SSE 16.6 km/h 19.3 km/h 30 % 0 mm
19:16 30.4 °C 10.9 °C 1005.6 hPa South 12.4 km/h 18.5 km/h 30 % 0 mm
19:21 30.5 °C 10.9 °C 1006 hPa South 8.7 km/h 14.8 km/h 30 % 0 mm
19:26 30.5 °C 10.9 °C 1006 hPa South 10.6 km/h 13 km/h 30 % 0 mm
19:32 30.5 °C 10.9 °C 1006.3 hPa South 8.9 km/h 18.5 km/h 30 % 0 mm
19:36 30.3 °C 10.3 °C 1006.3 hPa South 17.5 km/h 24.1 km/h 29 % 0 mm
19:41 29.8 °C 10.3 °C 1006.3 hPa SSW 10.3 km/h 13 km/h 30 % 0 mm
19:46 29.6 °C 10.6 °C 1006.3 hPa SSW 9.8 km/h 14.8 km/h 31 % 0 mm
19:51 29.5 °C 10.6 °C 1006.3 hPa North 17.2 km/h 18.5 km/h 31 % 0 mm
19:56 29.6 °C 10.2 °C 1006.7 hPa SSW 12.6 km/h 14.5 km/h 30 % 0 mm
20:01 29.7 °C 10.3 °C 1006.7 hPa SSW 9.3 km/h 14.8 km/h 30 % 0 mm
20:02 29.7 °C 10.3 °C 1006.7 hPa SSW 9.5 km/h 13 km/h 30 % 0 mm
20:07 29.8 °C 9.8 °C 1007 hPa SSW 15.4 km/h 18.5 km/h 29 % 0 mm
20:09 29.8 °C 9.8 °C 1007 hPa SSW 13.8 km/h 17.7 km/h 29 % 0 mm
20:14 29.6 °C 9.7 °C 1007 hPa SSW 15.9 km/h 22.2 km/h 29 % 0 mm
20:19 29.5 °C 9.6 °C 1007 hPa SSW 14.3 km/h 29 km/h 29 % 0 mm
20:22 29.4 °C 10 °C 1007 hPa South 14.5 km/h 22.2 km/h 30 % 0 mm
20:27 29 °C 10.2 °C 1007 hPa South 10.8 km/h 10.8 km/h 31 % 0 mm
20:34 28.4 °C 10.2 °C 1007.3 hPa SSE 8.7 km/h 11.1 km/h 32 % 0 mm
20:39 28 °C 9.8 °C 1007.3 hPa SSW 8.4 km/h 14.8 km/h 32 % 0 mm
20:43 27.8 °C 9.6 °C 1007.7 hPa SSW 10.8 km/h 19.3 km/h 32 % 0 mm
20:49 27.5 °C 9.8 °C 1007.3 hPa South 12.2 km/h 14.8 km/h 33 % 0 mm
20:54 27.2 °C 10 °C 1007.3 hPa South 5 km/h 11.1 km/h 34 % 0 mm
20:58 26.8 °C 10.1 °C 1007.7 hPa SSE 10.9 km/h 14.8 km/h 35 % 0 mm
20:59 26.7 °C 10 °C 1007.7 hPa SSE 8.7 km/h 14.8 km/h 35 % 0 mm
21:03 26.3 °C 10.1 °C 1007.7 hPa SSE 6.8 km/h 11.1 km/h 36 % 0 mm
21:09 25.9 °C 9.7 °C 1007.7 hPa SSE 9 km/h 13 km/h 36 % 0 mm
21:14 25.6 °C 9.8 °C 1007.7 hPa SSE 2.6 km/h 5.6 km/h 37 % 0 mm
21:15 25.6 °C 9.8 °C 1007.7 hPa SSE 3.7 km/h 6.4 km/h 37 % 0 mm
21:20 25.1 °C 9.8 °C 1007.7 hPa SSE 6.8 km/h 14.8 km/h 38 % 0 mm
21:25 24.8 °C 9.6 °C 1007.7 hPa SSE 9.5 km/h 13 km/h 38 % 0 mm
21:30 24.7 °C 9.4 °C 1007.7 hPa South 9.5 km/h 14.8 km/h 38 % 0 mm
21:34 24.7 °C 9.4 °C 1007.7 hPa SSW 12.7 km/h 18.5 km/h 38 % 0 mm
21:39 24.6 °C 9.3 °C 1008 hPa SSW 20.3 km/h 29.6 km/h 38 % 0 mm
21:40 24.4 °C 9.6 °C 1008.4 hPa SSW 16.7 km/h 27.8 km/h 39 % 0 mm
21:45 23.7 °C 10 °C 1008.4 hPa South 16.1 km/h 20.4 km/h 42 % 0 mm
21:50 22.7 °C 10.4 °C 1008.4 hPa South 12.2 km/h 20.4 km/h 46 % 0 mm
21:53 22.2 °C 10.7 °C 1008.7 hPa South 10.3 km/h 22.2 km/h 48 % 0 mm
21:56 21.7 °C 10.2 °C 1009.4 hPa South 21.4 km/h 35.2 km/h 48 % 0 mm
22:01 21.2 °C 10.6 °C 1009.4 hPa SSW 16.4 km/h 25.7 km/h 51 % 0 mm
22:06 20.5 °C 10 °C 1009.4 hPa SSW 18.3 km/h 20.4 km/h 51 % 0 mm
22:07 20.4 °C 9.9 °C 1009.4 hPa South 14.3 km/h 29.6 km/h 51 % 0 mm
22:12 19.9 °C 8.9 °C 1009.4 hPa South 15.3 km/h 24.1 km/h 49 % 0 mm
22:17 19.6 °C 8.9 °C 1009.4 hPa SSW 13.5 km/h 22.2 km/h 50 % 0 mm
22:18 19.6 °C 8.8 °C 1009.4 hPa South 11.9 km/h 16.7 km/h 50 % 0 mm
22:23 19.3 °C 8.9 °C 1009.4 hPa SE 12.2 km/h 18.5 km/h 51 % 0 mm
22:28 19.1 °C 9 °C 1009 hPa SSE 8.9 km/h 16.7 km/h 52 % 0 mm
22:31 19 °C 8.9 °C 1009 hPa SSE 9.7 km/h 16.7 km/h 52 % 0 mm
22:36 18.8 °C 9.1 °C 1009 hPa SSE 10.6 km/h 16.1 km/h 53 % 0 mm
22:37 18.8 °C 9 °C 1009 hPa SSE 10.6 km/h 16.7 km/h 53 % 0 mm
22:42 18.6 °C 9.1 °C 1009.7 hPa South 12.1 km/h 16.7 km/h 54 % 0 mm
22:43 18.6 °C 9.1 °C 1009.7 hPa South 10.5 km/h 16.7 km/h 54 % 0 mm
22:48 18.4 °C 8.9 °C 1009.7 hPa SSW 11.6 km/h 25.7 km/h 54 % 0 mm
22:52 18.4 °C 9.2 °C 1009.4 hPa South 8.9 km/h 16.7 km/h 55 % 0 mm
22:57 18.2 °C 9.3 °C 1009.7 hPa South 10.6 km/h 18.5 km/h 56 % 0 mm
23:02 18.2 °C 9.5 °C 1009.7 hPa South 10 km/h 16.7 km/h 57 % 0 mm
23:07 18 °C 9.9 °C 1009.7 hPa South 14.6 km/h 22.2 km/h 59 % 0 mm
23:12 17.8 °C 10.2 °C 1009.7 hPa SSW 11.3 km/h 18.5 km/h 61 % 0 mm
23:13 17.8 °C 10.2 °C 1009.7 hPa South 10.9 km/h 16.7 km/h 61 % 0 mm
23:18 17.7 °C 10.3 °C 1010 hPa South 10.5 km/h 14.5 km/h 62 % 0 mm
23:21 17.6 °C 10.5 °C 1009.7 hPa SSE 10.6 km/h 11.1 km/h 63 % 0 mm
23:26 17.5 °C 10.8 °C 1010 hPa South 6.4 km/h 7.4 km/h 65 % 0 mm
23:31 17.4 °C 11.2 °C 1010 hPa North 9.7 km/h 22.2 km/h 67 % 0 mm
23:36 17.2 °C 11.5 °C 1010 hPa SSE 8.2 km/h 14.8 km/h 69 % 0 mm
23:37 17.2 °C 11.5 °C 1010 hPa SSE 10.6 km/h 14.8 km/h 69 % 0 mm
23:42 17.1 °C 11.8 °C 1010 hPa SSE 12.4 km/h 22.2 km/h 71 % 0 mm
23:47 17.1 °C 11.9 °C 1010 hPa North 3.4 km/h 7.4 km/h 72 % 0 mm
23:50 17 °C 12.1 °C 1010 hPa SSE 8.7 km/h 14.8 km/h 73 % 0 mm
23:55 16.9 °C 12.7 °C 1010.4 hPa South 13.2 km/h 18.5 km/h 76 % 0 mm
Ararat Weather
Compliments of Weather Underground - 3 mb
Click here to send mail.


ABOUT

Live weather data from Ararat, Victoria, Australia, 3377
Data uploaded from Cumulus every 5 minutes to Weather Underground.
This site then downloads the raw data for formatting and display.
Metric and imperial data can be displayed. Graphs and historical data available.
Includes Sun and Moon times and rain image live from BOM.

Check out Ararat Weather on Facebook, Twitter and Google +

Help support ongoing costs by checking out the ads





Follow @AraratWeather